Location: Unspecified
(48.8656°N, 0.0000°E)
Time: 14:30:27
(UTC+00:00)

Vanguard 1 - Pass Details

Date: 20 June 2019
Orbit: 653 x 3830 km, 34.3° (Epoch: 15 July)

Event Time Altitude Azimuth Distance (km) Brightness Sun altitude
Rises 07:31:54 0° 263° (W) 5,295 13.3 32.1°
Reaches altitude 10° 07:37:02 10° 249° (WSW) 3,683 12.6 32.9°
Maximum altitude 07:42:50 20° 208° (SSW) 2,362 12.0 33.9°
Drops below altitude 10° 07:47:03 10° 163° (SSE) 2,556 12.6 34.6°
Sets 07:49:49 0° 144° (SE) 3,248 13.2 35.0°
